Location: *
(53.9002°N, 27.5624°E)
Time: 23:18:33
(UTC+00:00)

Cosmos 1842 Rocket - Pass Details

Date: 12 November 2019
Orbit: 605 x 635 km, 82.5° (Epoch: 08 December)

Event Time Altitude Azimuth Distance (km) Brightness Sun altitude
Rises 16:07:51 0° 202° (SSW) 2,923 7.5 -16.3°
Reaches altitude 10° 16:10:07 10° 207° (SSW) 2,020 6.6 -16.6°
Maximum altitude 16:14:31 55° 285° (WNW) 768 4.3 -17.3°
Drops below altitude 10° 16:18:57 10° 4° (N) 2,029 6.1 -17.9°
Sets 16:21:15 0° 9° (N) 2,938 6.9 -18.2°
